Kingston, Jamaica

11:32 PM EST on November 23, 2017 (GMT -0500)
Norman Manley International

Weather History for MKJP - April, 2011

Change the Weather History Date:

Tuesday, April 19, 2011

  Actual Average Record
Temperature  
Mean Temperature 81 °F -  
Max Temperature 88 °F 86 °F 89 °F (2016)
Min Temperature 74 °F 77 °F 32 °F (2014)
Cooling Degree Days 16    
Growing Degree Days 31 (Base 50)    
Moisture  
Dew Point 63 °F    
Average Humidity 58    
Maximum Humidity 73    
Minimum Humidity 37    
Precipitation  
Precipitation 0.00 in - - ()
Sea Level Pressure  
Sea Level Pressure 29.96 in    
Wind  
Wind Speed 6 mph ()    
Max Wind Speed 21 mph    
Max Gust Speed -    
Visibility 5.7 miles    
Events      
Averages and records for this station are not official NWS values.
T = Trace of Precipitation, MM = Missing Value Source: Averaged Metar Reports

Daily Weather History Graph

Daily Weather History Graph

Search for Another Location

Airport or City:

Trip Planner

Search our weather history database for the weather conditions in past years. The results will help you decide how hot, cold, wet, or windy it might be!

Date:

Astronomy

Apr. 19, 2011 Rise Set
Actual Time 5:48 AM EST 6:24 PM EST
Civil Twilight 5:25 AM EST 6:46 PM EST
Nautical Twilight 4:59 AM EST 7:13 PM EST
Astronomical Twilight 4:33 AM EST 7:39 PM EST
Moon 8:21 PM EST (4/19) 6:49 AM EST (4/19)
Length of Visible Light 13h 21m
Length of Day
12h 36m
Waning Gibbous, 96% of the Moon is Illuminated
Apr 19
Waning Gibbous
Apr 24
Last Quarter
May 3
New
May 10
First Quarter
May 17
Full

Hourly Weather History & Observations

Time (EST) Temp. Heat Index Dew Point Humidity Pressure Visibility Wind Dir Wind Speed Gust Speed Precip Events Conditions
12:00 AM 75.2 °F - 66.2 °F 73% 29.98 in 6.2 mi North 3.5 mph - N/A   Scattered Clouds
1:00 AM 76 °F - 64 °F 59% 29.97 in 4 mi NNW 3.5 mph - -   Haze
1:00 AM 75.2 °F - 64.4 °F 69% 29.95 in 6.2 mi NNW 3.5 mph - N/A   Partly Cloudy
2:00 AM 75.2 °F - 64.4 °F 69% 29.95 in 6.2 mi NNW 3.5 mph - N/A   Partly Cloudy
3:00 AM 73.4 °F - 62.6 °F 69% 29.92 in 6.2 mi West 4.6 mph - N/A   Partly Cloudy
4:00 AM 74 °F - 63 °F 60% 29.94 in 4 mi North 5.8 mph - -   Haze
4:00 AM 75.2 °F - 62.6 °F 65% 29.92 in 6.2 mi North 5.8 mph - N/A   Partly Cloudy
5:00 AM 75.2 °F - 62.6 °F 65% 29.95 in 6.2 mi North 5.8 mph - N/A   Partly Cloudy
6:00 AM 75.2 °F - 62.6 °F 65% 29.95 in 6.2 mi NNW 3.5 mph - N/A   Partly Cloudy
7:00 AM 77 °F - 65 °F 57% 29.99 in 5 mi NNE 2.3 mph - -   Haze
7:00 AM 77.0 °F - 64.4 °F 65% 29.98 in 6.2 mi NNE 2.3 mph - N/A   Partly Cloudy
8:00 AM 78.8 °F - 62.6 °F 57% 29.98 in 6.2 mi NW 2.3 mph - N/A   Partly Cloudy
9:00 AM 80.6 °F 81.5 °F 60.8 °F 51% 30.01 in 6.2 mi South 4.6 mph - N/A   Partly Cloudy
10:00 AM 80 °F - 62 °F 44% 30.02 in 5 mi South 8.1 mph - -   Haze
10:00 AM 80.6 °F 81.8 °F 62.6 °F 54% 30.01 in 6.2 mi South 8.1 mph - N/A   Partly Cloudy
11:00 AM 80.6 °F 81.8 °F 62.6 °F 54% 30.01 in 6.2 mi SSE 8.1 mph - N/A   Partly Cloudy
12:00 PM 82.4 °F 82.5 °F 59.0 °F 45% 29.98 in 6.2 mi SSW 8.1 mph - N/A   Partly Cloudy
1:00 PM 83 °F - 61 °F 37% 29.99 in 4 mi South 9.2 mph - -   Haze
1:00 PM 82.4 °F 82.9 °F 60.8 °F 48% 29.98 in 6.2 mi South 9.2 mph - N/A   Scattered Clouds
2:00 PM 84.2 °F 85.6 °F 64.4 °F 51% 29.95 in 6.2 mi SE 16.1 mph - N/A   Partly Cloudy
3:00 PM 82.4 °F 83.9 °F 64.4 °F 54% 29.92 in 6.2 mi SE 20.7 mph - N/A   Scattered Clouds
4:00 PM 82 °F - 65 °F 48% 29.93 in 4 mi SE 16.1 mph - -   Clear
4:00 PM 82.4 °F 84.6 °F 66.2 °F 58% 29.92 in 6.2 mi SE 16.1 mph - N/A   Mostly Cloudy
5:00 PM 82.4 °F 83.9 °F 64.4 °F 54% 29.92 in 6.2 mi SE 16.1 mph - N/A   Mostly Cloudy
6:00 PM 80.6 °F 81.8 °F 62.6 °F 54% 29.92 in 6.2 mi SE 17.3 mph - N/A   Scattered Clouds
7:00 PM 79 °F - 64 °F 51% 29.94 in 4 mi SE 17.3 mph - -   Haze
7:00 PM 78.8 °F - 64.4 °F 61% 29.92 in 6.2 mi SE 17.3 mph - N/A   Partly Cloudy
8:00 PM 78.8 °F - 64.4 °F 61% 29.95 in 6.2 mi SE 6.9 mph - N/A   Partly Cloudy
9:00 PM 77.0 °F - 66.2 °F 69% 29.98 in 6.2 mi North 10.4 mph - N/A   Partly Cloudy
10:00 PM 77 °F - 64 °F 56% 29.99 in 4 mi North 11.5 mph - -   Haze
10:00 PM - - - N/A% - - North - - N/A   Unknown
11:00 PM 77.0 °F - 64.4 °F 65% 29.98 in 6.2 mi North 10.4 mph - N/A   Partly Cloudy